Bonilla Island, British Columbia

12:55 AM PDT on April 22, 2018 (GMT -0700)
Bonilla Island

Weather History for CWWL - November, 2012

Change the Weather History Date:

Saturday, November 3, 2012

  Actual Average Record
Temperature  
Mean Temperature 60 °F -  
Max Temperature 64 °F 47 °F - ()
Min Temperature 55 °F 40 °F - ()
Degree Days  
Heating Degree Days 6    
Growing Degree Days 10 (Base 50)    
Moisture  
Dew Point 57 °F    
Average Humidity 89    
Maximum Humidity 93    
Minimum Humidity 75    
Precipitation  
Precipitation 0.20 in 0.34 in - ()
Sea Level Pressure  
Sea Level Pressure 29.71 in    
Wind  
Wind Speed 18 mph ()    
Max Wind Speed 30 mph    
Max Gust Speed 39 mph    
T = Trace of Precipitation, MM = Missing Value Source: Averaged Metar Reports

Daily Weather History Graph

Daily Weather History Graph

Search for Another Location

Airport or City:

Astronomy

Nov. 03, 2012 Rise Set
Actual Time 8:46 AM PDT 6:04 PM PDT
Civil Twilight 8:09 AM PDT 6:41 PM PDT
Nautical Twilight 7:27 AM PDT 7:23 PM PDT
Astronomical Twilight 6:47 AM PDT 8:04 PM PDT
Moon 9:38 PM PDT (11/3) 1:10 PM PDT (11/3)
Length of Visible Light 10h 32m
Length of Day
9h 17m
Waning Gibbous, 79% of the Moon is Illuminated
Nov 3
Waning Gibbous
Nov 6
Last Quarter
Nov 13
New
Nov 20
First Quarter
Nov 28
Full

Hourly Weather History & Observations

Time (PDT) Temp. Dew Point Humidity Pressure Visibility Wind Dir Wind Speed Gust Speed Precip Events Conditions
12:00 AM 60.6 °F 56.8 °F 87% 29.66 in - South 16.1 mph - N/A   Unknown
1:00 AM 58.6 °F 53.4 °F 83% 29.67 in - South 18.4 mph - N/A   Unknown
2:00 AM 61.2 °F 58.8 °F 92% 29.67 in - SSE 13.8 mph 20.7 mph N/A   Unknown
3:00 AM 61.2 °F 59.0 °F 93% 29.66 in - SSE 20.7 mph - N/A   Unknown
4:00 AM 60.3 °F 58.1 °F 93% 29.66 in - SSE 18.4 mph 27.6 mph N/A   Unknown
5:00 AM 60 °F 57 °F 88% 29.65 in - SSE 25.3 mph - -  
5:00 AM 59.9 °F 57.4 °F 91% 29.65 in - SSE 25.3 mph - N/A   Unknown
6:00 AM 58.3 °F 55.2 °F 90% 29.65 in - SSE 18.4 mph 27.6 mph N/A   Unknown
7:00 AM 57.4 °F 54.1 °F 89% 29.64 in - SSE 20.7 mph 31.1 mph N/A   Unknown
8:00 AM 57.9 °F 55.2 °F 91% 29.63 in - SSE 19.6 mph 32.2 mph 0.02 in   Unknown
9:00 AM 59.0 °F 56.8 °F 93% 29.62 in - SSE 29.9 mph 39.1 mph 0.08 in   Unknown
10:00 AM 55.9 °F 53.4 °F 91% 29.65 in - South 28.8 mph 38.0 mph 0.07 in   Unknown
11:00 AM 63 °F 60 °F 88% 29.65 in - South 24.2 mph - -  
11:00 AM 63.1 °F 60.3 °F 90% 29.65 in - South 24.2 mph - 0.03 in   Unknown
12:00 PM 62.1 °F 59.0 °F 90% 29.67 in - South 26.5 mph - N/A   Unknown
1:00 PM 61.9 °F 58.5 °F 89% 29.69 in - SSE 24.2 mph - N/A   Unknown
2:00 PM 61.2 °F 58.5 °F 91% 29.71 in - South 20.7 mph - N/A   Unknown
3:00 PM 61.7 °F 58.5 °F 89% 29.72 in - South 20.7 mph - N/A   Unknown
4:00 PM 60.8 °F 57.2 °F 88% 29.73 in - South 23.0 mph - N/A   Unknown
5:00 PM 60 °F 54 °F 75% 29.75 in - South 23.0 mph - -  
5:00 PM 60.4 °F 54.1 °F 80% 29.75 in - South 23.0 mph - N/A   Unknown
6:00 PM 57.2 °F 52.0 °F 83% 29.77 in - South 20.7 mph - N/A   Unknown
7:00 PM 59.2 °F 54.5 °F 84% 29.79 in - South 20.7 mph - N/A   Unknown
8:00 PM 59.5 °F 54.5 °F 83% 29.81 in - South 21.9 mph - N/A   Unknown
9:00 PM 60.6 °F 57.9 °F 91% 29.82 in - SSE 17.3 mph - N/A   Unknown
10:00 PM 60.3 °F 57.9 °F 92% 29.83 in - SSE 17.3 mph 23.0 mph N/A   Unknown
11:00 PM 60 °F 58 °F 92% 29.83 in - SSE 13.8 mph - -  
11:00 PM 60.3 °F 58.3 °F 93% 29.83 in - SSE 13.8 mph 21.9 mph N/A   Unknown